Location: Quendon
(51.9500°N, 0.2000°E)
Time: 17:00:50
(UTC+00:00)

Daily predictions for brighter satellites

Satellite Brightness Start Highest point End
(mag) Time Altitude Azimuth Time Altitude Azimuth Time Altitude Azimuth
Alouette 2 Rocket 4.2 16:56:12 10° N 17:00:39 65° ENE 17:07:20 10° SSE
Okean 1-7 Rocket 3.6 16:56:22 10° S 17:00:44 73° E 17:05:11 10° NNE
Cosmos 2227 Rocket 4.0 16:59:19 10° ESE 17:01:02 11° E 17:02:44 10° ENE
Helios 1A Rocket 3.4 16:57:38 10° S 17:01:38 67° WSW 17:05:42 10° NNW
Cosmos 2058 Rocket 3.2 16:57:16 10° NNW 17:01:39 85° W 17:06:02 10° S
Cosmos 1689 Rocket 2.1 16:58:57 10° NNE 17:01:55 85° WNW 17:04:51 10° SSW
COSMOS 2428 2.8 16:56:34 10° NNW 17:02:22 87° ENE 17:08:07 10° SSE
Cosmos 468 4.5 16:57:40 10° NNW 17:02:57 81° ENE 17:08:11 10° SSE
Cosmos 1602 Rocket 4.3 17:07:20 10° SSE 17:11:12 31° E 17:15:03 10° NNE
AQUARIUS 4.1 17:07:27 10° SSE 17:11:56 75° ENE 17:16:27 10° NNW
Cosmos 2074 Rocket 4.1 17:07:27 10° S 17:13:40 66° E 17:19:55 10° NNE
USA 267 3.3 17:09:59 10° ENE 17:16:33 80° SSE 17:23:07 10° WSW
COSMO-SKYMED 1 3.8 17:15:27 10° NE 17:18:54 23° E 17:22:21 10° SE
ATLAS CENTAUR R/B 2.9 17:15:41 10° NNW 17:18:57 20° NNE 17:21:48 11° ENE
Cosmos 494 Rocket 3.9 17:17:05 10° NNW 17:22:11 63° ENE 17:27:16 10° SE
Meteor 2-10 Rocket 4.5 17:19:03 10° N 17:23:37 26° ENE 17:28:00 10° ESE
CZ-4C R/B 3.1 17:17:24 10° NW 17:24:24 81° SW 17:32:32 10° SE
Cosmos 2298 Rocket 4.0 17:23:24 10° SSW 17:28:42 81° ESE 17:34:03 10° NNE
TIMED 4.5 17:24:21 10° NNW 17:28:44 71° ENE 17:33:06 10° SSE
NOSS 0 Rocket 4.0 17:22:39 10° NNW 17:28:57 86° ENE 17:35:10 10° SSE
Ariane Rocket 4.3 17:26:19 10° E 17:29:48 19° NE 17:33:18 10° N
Starlink AQ 3.3 17:27:30 10° SW 17:30:22 47° SSE 17:32:34 15° E
Starlink AS 3.2 17:28:13 10° SW 17:31:03 48° SSE 17:33:12 16° E
Starlink BA 3.2 17:28:29 10° SW 17:31:19 48° SSE 17:33:28 16° E
Nadezhda 3 Rocket 4.0 17:25:03 10° N 17:31:19 72° ENE 17:37:38 10° SSE
Starlink AU 3.2 17:28:42 10° SW 17:31:32 48° SSE 17:33:41 16° E
Starlink AT 3.2 17:28:56 10° SW 17:31:46 48° SSE 17:33:54 16° E
CZ-4 R/B 1.9 17:28:03 10° SE 17:31:46 36° ENE 17:35:36 10° N
Starlink BB 3.2 17:29:09 10° SW 17:31:59 48° SSE 17:34:07 16° E
Starlink BC 3.2 17:29:22 10° SW 17:32:12 48° SSE 17:34:19 16° E
Starlink BK 3.2 17:29:36 10° SW 17:32:26 49° SSE 17:34:32 16° E
Starlink AY 3.2 17:29:49 10° SW 17:32:39 49° SSE 17:34:45 16° E
Starlink AW 3.2 17:30:03 10° SW 17:32:53 49° SSE 17:34:58 16° E
Starlink BJ 3.2 17:30:17 10° SW 17:33:07 49° SSE 17:35:12 16° E
Starlink AV 3.2 17:30:29 10° SW 17:33:19 49° SSE 17:35:23 16° E
Cosmos 1626 Rocket 3.5 17:29:10 10° S 17:33:26 62° E 17:37:43 10° NNE
Starlink BD 3.2 17:30:43 10° SW 17:33:33 49° SSE 17:35:37 17° E
Starlink BE 3.2 17:30:55 10° SW 17:33:47 50° SSE 17:35:51 17° E
Starlink BM 3.2 17:31:09 10° SW 17:34:00 50° SSE 17:36:03 17° E
Starlink AX 3.2 17:31:23 10° SW 17:34:13 50° SSE 17:36:16 17° E
Starlink BH 3.2 17:31:37 10° SW 17:34:28 50° SSE 17:36:29 17° E
NOSS 2-1 (C) 4.2 17:29:49 10° NW 17:34:37 63° NE 17:41:17 10° ESE
Starlink AZ 3.2 17:31:49 10° SW 17:34:41 50° SSE 17:36:42 17° E
Starlink BG 3.2 17:32:03 10° SW 17:34:53 50° SSE 17:36:55 17° E
Starlink BF 3.1 17:32:17 10° SW 17:35:08 50° SSE 17:37:08 17° E
Starlink BL 3.2 17:32:28 10° SW 17:35:21 51° SSE 17:37:22 17° E
Starlink AH 3.1 17:32:44 10° SW 17:35:35 51° SSE 17:37:34 17° E
Starlink AC 3.1 17:32:58 10° SW 17:35:49 51° SSE 17:37:48 18° E
Okean-O 2.6 17:31:32 10° SSE 17:35:57 73° ENE 17:40:24 10° NNW
Starlink X 3.1 17:33:11 10° SW 17:36:02 51° SSE 17:38:00 18° E
Starlink AE 3.1 17:33:20 10° SW 17:36:14 52° SSE 17:38:14 18° E
Starlink Z 3.1 17:33:37 10° SW 17:36:29 51° SSE 17:38:26 18° E
Starlink AK 3.1 17:33:50 10° SW 17:36:42 52° SSE 17:38:39 18° E
Okean O Rocket 4.0 17:33:04 10° SSW 17:36:53 28° W 17:40:43 10° NW
Starlink AL 3.1 17:34:05 10° SW 17:36:56 52° SSE 17:38:53 18° E
Starlink AD 3.1 17:34:17 10° SW 17:37:09 52° SSE 17:39:04 18° E
Starlink Y 3.1 17:34:43 10° SW 17:37:35 52° SSE 17:39:30 18° E
Starlink AG 3.1 17:34:58 10° SW 17:37:50 52° SSE 17:39:45 18° E
Starlink W 3.1 17:35:09 10° SW 17:38:02 53° SSE 17:39:58 18° E
Starlink AJ 3.1 17:35:24 10° SW 17:38:16 53° SSE 17:40:10 19° E
NOSS 2-1 (D) 4.2 17:33:37 10° NW 17:38:27 66° NE 17:45:12 10° ESE
Starlink AM 3.1 17:35:48 10° SW 17:38:40 53° SSE 17:40:33 19° E
Starlink AP 3.1 17:36:04 10° SW 17:38:56 53° SSE 17:40:49 19° E
Starlink AA 3.1 17:36:18 10° SW 17:39:10 53° SSE 17:41:01 19° E
Starlink AF 3.1 17:36:26 10° SW 17:39:18 54° SSE 17:41:10 19° E
Starlink AB 3.1 17:36:45 10° SW 17:39:37 54° SSE 17:41:28 19° E
Starlink AN 3.0 17:36:59 10° SW 17:39:50 54° SSE 17:41:41 19° E
Cosmos 1674 3.9 17:36:31 10° SSW 17:40:05 42° WNW 17:43:39 10° N
Cosmos 2082 Rocket 4.3 17:37:39 10° WNW 17:40:48 15° NNW 17:43:58 10° NNE
H-2A R/B 3.5 17:43:38 15° ENE 17:44:12 15° NE 17:47:04 10° NNE
Cosmos 2251 Rocket 4.3 17:42:55 10° NNW 17:47:37 31° NE 17:52:20 10° ESE
Cosmos 2237 Rocket 2.1 17:42:18 10° NNW 17:47:58 81° ENE 17:53:36 10° SSE
ATLAS CENTAUR R/B 3.9 17:42:46 10° WSW 17:48:19 89° NNW 18:01:48 15° ENE
Cosmos 1300 3.0 17:44:50 10° NNW 17:48:39 69° W 17:52:26 10° S
Timation 2 Rocket 3.9 17:43:49 10° SSW 17:49:56 78° ESE 17:56:21 10° NE
Cosmos 2333 Rocket 3.6 17:45:34 10° NW 17:50:56 42° WSW 17:56:14 10° S
CZ-2D R/B 3.9 17:47:32 10° SE 17:50:57 32° ENE 17:54:25 10° N
Cosmos 1242 Rocket 2.5 17:47:39 10° SSW 17:51:09 81° WNW 17:54:45 10° N
Starlink T 2.9 17:48:26 10° WSW 17:51:24 63° SSE 17:52:52 26° E
Starlink N 2.9 17:49:47 10° WSW 17:52:44 64° SSE 17:54:10 27° E
SJ 16-02 3.5 17:49:24 10° WSW 17:52:52 22° NW 17:56:20 10° N
Cosmos 1825 Rocket 4.2 17:49:35 10° SSE 17:53:29 33° E 17:57:18 10° NNE
Cosmos 1607 3.9 17:47:44 10° SW 17:53:52 83° SE 17:59:20 14° NE
Starlink Q 2.8 17:51:25 10° WSW 17:54:23 66° SSE 17:55:45 28° E
Starlink P 2.8 17:52:52 10° WSW 17:55:51 67° SSE 17:57:09 29° E
SL-8 Rocket 4.4 17:51:19 10° SSE 17:57:04 39° E 18:02:51 10° NNE
Starlink U 2.8 17:54:19 10° WSW 17:57:17 68° SSE 17:58:33 30° E
USA 32 4.1 17:52:59 10° SSE 17:58:03 53° E 18:03:09 10° NNE
Cosmos 2341 Rocket 4.1 17:52:16 10° SSE 17:58:26 53° E 18:04:35 10° NNE
Starlink B 2.8 17:55:47 10° WSW 17:58:45 69° SSE 17:59:58 32° E
Cosmos 2150 Rocket 4.4 17:56:31 10° SW 18:01:38 64° WNW 18:06:47 10° NNE
YAOGAN 6 2.8 17:58:32 10° S 18:02:13 75° WSW 18:05:54 10° NNW
Cosmos 1626 2.3 17:59:08 10° SSW 18:02:49 71° W 18:06:34 10° N
CSL-04 Rocket 3.7 17:58:37 10° SSE 18:04:02 62° ENE 18:09:32 10° N
Cosmos 1455 2.6 18:00:33 10° N 18:04:13 40° ENE 18:07:48 10° SE
Meteor 2-17 Rocket 4.4 17:58:45 10° S 18:04:50 69° E 18:10:57 10° NNE
Meteor 1-24 Rocket 4.2 18:00:24 10° SSW 18:05:38 59° WNW 18:11:02 10° N
Starlink D 2.7 18:02:41 10° WSW 18:05:41 75° SSE 18:06:40 38° E
Starlink S 2.7 18:04:13 10° WSW 18:07:14 76° SSE 18:08:09 40° E
SKYMED 2 3.5 18:02:55 10° NNE 18:07:15 61° ESE 18:11:33 10° S
CZ-2C R/B 4.4 18:07:47 20° NE 18:07:51 20° NE 18:11:50 10° N
Cosmos 1340 Rocket 3.5 18:03:58 10° NNW 18:07:51 56° W 18:11:45 10° S
Starlink C 2.7 18:05:42 10° WSW 18:08:43 77° SSE 18:09:35 42° E
ATLAS 5 CENTAUR R/B 2.7 18:04:32 10° W 18:08:44 39° NNW 18:12:20 16° NE
SL-16 R/B 2.3 18:03:52 10° NNW 18:09:27 53° NE 18:14:59 10° SE
Cosmos 1271 Rocket 3.9 18:05:59 10° SW 18:09:33 42° WNW 18:13:09 10° N
Starlink E 2.7 18:07:15 10° WSW 18:10:16 78° SSE 18:11:05 44° E
Meteor 1-21 Rocket 4.3 18:05:19 10° S 18:10:45 56° E 18:16:21 10° NNE
Starlink J 2.7 18:08:48 10° WSW 18:11:49 80° SSE 18:12:35 46° E
Starlink V 2.7 18:10:20 10° WSW 18:13:22 81° SSE 18:14:03 49° E
ISS -1.3 18:13:09 10° SSE 18:14:04 12° SE 18:14:04 12° SE
USA 116 4.2 18:15:28 29° SE 18:15:28 29° SE 18:17:37 10° SSE
Cosmos 1125 Rocket 3.5 18:09:32 10° SSW 18:14:45 82° WNW 18:19:55 11° NNE
Starlink H 2.7 18:11:54 10° WSW 18:14:56 82° SSE 18:15:34 51° E
SL-14 R/B 4.2 18:11:14 10° SSW 18:15:08 50° WNW 18:19:01 10° N
Starlink F 2.7 18:13:27 10° WSW 18:16:29 83° SSE 18:17:05 54° E
Cosmos 2219 3.2 18:12:25 10° SSW 18:17:56 61° ESE 18:21:52 20° NE
Starlink G 2.7 18:15:01 10° WSW 18:18:03 84° SSE 18:18:35 57° E
Starlink L 2.7 18:16:35 10° WSW 18:19:37 85° SSE 18:20:05 60° E
Starlink A 2.7 18:18:09 10° WSW 18:21:11 86° SSE 18:21:36 63° E
Cosmos 2082 4.5 18:16:30 10° SSE 18:21:12 29° ESE 18:21:52 28° E
Starlink R 2.6 18:19:44 10° WSW 18:22:46 87° S 18:23:08 67° E
Starlink AR 2.4 18:21:15 10° WSW 18:23:41 77° W 18:23:41 77° W
Starlink K 2.6 18:21:17 10° WSW 18:24:19 88° S 18:24:38 70° E
Envisat 4.4 18:20:13 10° SSW 18:25:00 41° W 18:29:50 10° NNW
NOSS 2-1 (E) 4.4 18:20:00 10° NW 18:25:10 80° SW 18:32:26 10° SE
Starlink M 2.6 18:22:48 10° WSW 18:25:52 89° SE 18:26:06 74° ENE
ATLAS 5 CENTAUR R/B 3.2 18:25:28 10° NW 18:29:05 49° NNE 18:33:50 25° E
YAOGAN 1 2.6 18:25:21 10° SSE 18:29:41 80° WSW 18:34:03 10° NNW
Cosmos 2218 Rocket 4.1 18:23:52 10° SSE 18:30:02 56° E 18:36:17 10° NNE
Cosmos-2242 3.0 18:26:01 10° NNW 18:30:23 85° W 18:34:42 10° S
Cosmos 1339 Rocket 4.3 18:24:28 10° N 18:30:35 77° ENE 18:36:42 10° SSE
Cosmos 2297 Rocket 2.3 18:26:08 10° S 18:31:38 56° ESE 18:34:25 29° NE
ADEOS Rocket 3.6 18:26:32 10° NNE 18:32:37 41° E 18:39:16 10° SSE
Cosmos 864 Rocket 4.5 18:29:59 10° SSE 18:35:55 55° E 18:41:55 10° NNE
Cosmos 1939 Rocket 2.7 18:33:13 10° SSE 18:37:08 88° WSW 18:41:08 10° NNW
ERBS 3.2 18:37:55 10° SSW 18:40:26 36° S 18:40:26 36° S
Cosmos 2227 Rocket 2.1 18:38:22 10° SSW 18:43:56 62° ESE 18:46:12 36° NE
NOAA 11 4.4 18:39:46 10° S 18:45:15 72° WSW 18:50:47 10° NNW
Cosmos 1959 Rocket 4.3 18:48:05 10° S 18:54:14 79° E 19:00:22 10° NNE
Cosmos 1703 4.0 18:51:17 10° S 18:53:59 41° SSE 18:53:59 41° SSE
COSMO-SKYMED 1 3.5 18:51:08 10° N 18:55:20 48° WNW 18:59:30 10° SW
Cosmos 1943 4.0 18:52:27 10° NNW 18:57:04 34° NNE 18:57:04 34° NNE
ARGOS 3.6 18:59:07 42° NE 18:59:07 42° NE 19:03:25 10° N
ATLAS CENTAUR R/B 1.6 18:54:30 10° NW 18:58:01 55° N 18:58:01 55° N
USA 267 3.5 18:56:47 36° NE 18:59:31 62° N 19:05:56 10° W
Cosmos 1953 Rocket 3.6 18:56:17 10° SSW 19:00:47 82° WNW 19:02:55 31° N
Cosmos 1842 Rocket 4.5 18:57:19 10° N 19:00:04 35° N 19:00:04 35° N
Cosmos 2366 rocket 3.9 18:59:16 10° S 19:05:29 89° E 19:11:50 10° N
Meteor 2-10 Rocket 4.2 19:00:48 10° NNW 19:06:05 56° W 19:11:08 10° S
CZ-4 R/B 3.5 19:03:24 10° SSW 19:06:53 27° W 19:10:28 10° NW
Ariane Rocket 2.9 19:03:04 10° SSE 19:08:08 87° WSW 19:13:16 10° NNW
Cosmos 1932 4.4 19:04:17 10° SSW 19:10:40 78° SE 19:12:28 50° NE
H-2A R/B 2.5 19:24:15 47° N 19:24:15 47° N 19:27:54 10° NNW
Cosmos 2082 Rocket 4.5 19:26:09 10° N 19:27:34 11° N 19:27:54 11° N
Cosmos 1727 Rocket 4.3 19:21:27 10° NNW 19:27:36 66° W 19:33:41 10° S
Cosmos 2251 Rocket 4.2 19:25:03 10° NNW 19:30:12 54° WSW 19:32:57 27° S
Meteor 2-2 Rocket 4.2 19:26:46 10° NNW 19:32:41 80° NE 19:32:41 80° NE
Meteor 2-12 Rocket 4.2 19:28:20 10° S 19:34:23 84° E 19:34:32 83° ENE
Meteor 1-27 4.4 19:33:07 10° NNW 19:38:41 68° W 19:40:19 45° SSW
Meteor 1-11 4.3 19:39:15 10° SSW 19:44:48 73° W 19:44:48 73° W
CZ-2C R/B 3.9 19:48:50 44° NNW 19:48:50 44° NNW 19:52:38 10° NNW
SL-16 R/B 3.7 19:48:20 10° NW 19:53:23 34° WSW 19:57:05 17° SSW
ATLAS 5 CENTAUR R/B 3.7 19:50:48 10° WNW 19:53:52 23° NNW 19:53:52 23° NNW
Cosmos 2082 4.4 19:59:24 10° SW 20:03:48 50° WSW 20:03:48 50° WSW
Cosmos 2297 Rocket 3.5 20:10:48 10° WSW 20:15:59 35° NW 20:16:16 35° NW
ADEOS Rocket 3.9 20:12:09 10° N 20:18:15 50° WNW 20:24:58 10° SW
Cosmos 2227 Rocket 3.7 20:23:20 10° WSW 20:28:04 32° NW 20:28:04 32° NW
USA 267 4.1 20:44:07 44° NW 20:44:07 44° NW 20:48:35 10° WNW
